This is the latest recevied weather packets stored in our database for station/object OK3FM-14. If no packets are shown the sender has not sent any weather packets the latest 10 day(s).
| Time | Temp. | Humidity | Pressure | Rain* | Wind** | Luminosity | Snow |
|---|---|---|---|---|---|---|---|
| 1787846244 | 26.11° C | 45% | 1018 hPa | - | - | - | - |
| 1787845644 | 26.11° C | 45% | 1018.1 hPa | - | - | - | - |
| 1787845044 | 26.67° C | 44% | 1018.1 hPa | - | - | - | - |
| 1787844444 | 26.67° C | 44% | 1018.2 hPa | - | - | - | - |
| 1787843844 | 26.11° C | 45% | 1018.3 hPa | - | - | - | - |
| 1787843244 | 26.11° C | 46% | 1018.4 hPa | - | - | - | - |
| 1787842644 | 26.11° C | 45% | 1018.4 hPa | - | - | - | - |
| 1787842044 | 26.11° C | 44% | 1018.4 hPa | - | - | - | - |
| 1787841444 | 26.11° C | 45% | 1018.3 hPa | - | - | - | - |
| 1787840844 | 26.11° C | 45% | 1018.2 hPa | - | - | - | - |
| 1787840244 | 26.11° C | 44% | 1018.3 hPa | - | - | - | - |
| 1787839644 | 26.11° C | 45% | 1018.4 hPa | - | - | - | - |
| 1787839045 | 26.11° C | 44% | 1018.5 hPa | - | - | - | - |
| 1787838444 | 26.11° C | 44% | 1018.6 hPa | - | - | - | - |
| 1787837844 | 26.11° C | 45% | 1018.5 hPa | - | - | - | - |
| 1787837244 | 25.56° C | 45% | 1018.5 hPa | - | - | - | - |
| 1787836644 | 26.11° C | 44% | 1018.6 hPa | - | - | - | - |
| 1787836044 | 25.56° C | 44% | 1019 hPa | - | - | - | - |
| 1787835444 | 26.11° C | 45% | 1019 hPa | - | - | - | - |
| 1787834844 | 25.56° C | 45% | 1019.2 hPa | - | - | - | - |
| 1787833644 | 25.56° C | 46% | 1019.2 hPa | - | - | - | - |
| 1787833044 | 25° C | 45% | 1019 hPa | - | - | - | - |
| 1787832444 | 25° C | 46% | 1019.1 hPa | - | - | - | - |
| 1787831844 | 25° C | 45% | 1019.3 hPa | - | - | - | - |
| 1787831244 | 25° C | 47% | 1019.5 hPa | - | - | - | - |
* Rain since midnight (hover to see other rain measurements)
** Current wind speed in m/s (hover to see current wind gust speed)